Location: Siratepeler Tepesi
(39.1042°N, 32.0781°E)
Time: 11:30:43
(UTC+00:00)

CENTAUR R/B - Pass Details

Date: 11 April 2026
Orbit: 623 x 1557 km, 63.4° (Epoch: 14 May)

Event Time Altitude Azimuth Distance (km) Brightness Sun altitude
Rises 17:20:58 0° 322° (NW) 4,326 7.0 -11.2°
Reaches altitude 10° 17:23:44 10° 319° (NW) 3,456 6.4 -11.7°
Maximum altitude 17:32:16 59° 244° (WSW) 1,720 4.0 -13.3°
Drops below altitude 10° 17:41:32 10° 168° (SSE) 3,730 5.2 -14.9°
Sets 17:44:38 0° 165° (SSE) 4,687 5.7 -15.5°
